Flag for U.S.A. Weather past 2 weeks in Fall River, Massachusetts, U.S.A.

Now
83 °F

Sunny.


Feels Like: 85 °F
Forecast: 64 / 85 °F
Wind: 10 mph from Southwest

Location: New Bedford Regional Airport

Current Time: Aug 30, 2015 at 4:29:23 PM

Latest Report: Aug 30, 2015 at 3:53 PM


Visibility: 10 mi

Pressure: 30.01 "Hg

Humidity: 57%

Dew point: 66 °F

Location of Fall RiverLocation

Historic Weather in Fall River — Graph

°F

Fall River temperature yesterday

Maximum temperature yesterday: 79 °F (at 11:53 AM)
Minimum temperature yesterday: 54 °F (at 5:53 AM)
Average temperature yesterday: 68 °F

Past Weeks' High & Low Weather Summary

 TemperatureHumidityPressure
High89 °F (Aug 17, 12:53 PM)100% (Aug 22, 4:04 AM)30.20 "Hg (Aug 22, 4:04 AM)
Low54 °F (Aug 29, 5:53 AM)42% (Aug 27, 2:53 PM)29.85 "Hg (Aug 26, 3:53 AM)
Average74 °F79%30.02 "Hg
* Reported Aug 15 2:53 PM — Aug 30 2:53 PM, Fall River, Weather by CustomWeather, © 2015

Note: Actual official high and low records may vary slightly from our data, if they occured in-between our weather recording intervals... More about our weather records

Advertising

Fall River weather history for previous 24 hours

 ConditionsComfort  
Time TempWeatherWind HumidityBarometerVisibility
2:53 PM
Sun, Aug 30
84 °FPassing clouds.14 mph57%30.02 "Hg10 mi
1:53 PM85 °FScattered clouds.9 mph46%30.03 "Hg10 mi
12:53 PM84 °FOvercast.12 mph51%30.05 "Hg10 mi
11:53 AM83 °FSunny.13 mph55%30.07 "Hg10 mi
10:53 AM80 °FSunny.8 mph62%30.07 "Hg10 mi
9:53 AM77 °FSunny.8 mph69%30.08 "Hg10 mi
8:53 AM75 °FSunny.7 mph76%30.08 "Hg10 mi
7:53 AM70 °FSunny.3 mph90%30.08 "Hg10 mi
6:53 AM65 °FPassing clouds.5 mph97%30.08 "Hg10 mi
5:53 AM61 °FClear.5 mph97%30.07 "Hg10 mi
4:53 AM61 °FClear.3 mph97%30.07 "Hg9 mi
3:53 AM63 °FClear.3 mph97%30.07 "Hg10 mi
2:53 AM65 °FClear.5 mph94%30.08 "Hg10 mi
1:53 AM67 °FClear.6 mph87%30.09 "Hg10 mi
12:53 AM64 °FClear.5 mph90%30.10 "Hg10 mi
11:53 PM
Sat, Aug 29
66 °FClear.3 mph90%30.10 "Hg10 mi
10:53 PM67 °FClear.5 mph87%30.11 "Hg10 mi
9:53 PM67 °FClear.5 mph85%30.11 "Hg10 mi
8:53 PM69 °FClear.8 mph79%30.10 "Hg10 mi
7:53 PM70 °FSunny.7 mph71%30.10 "Hg10 mi
6:53 PM72 °FSunny.9 mph64%30.09 "Hg10 mi
5:53 PM75 °FSunny.10 mph62%30.09 "Hg10 mi
4:53 PM78 °FSunny.10 mph54%30.10 "Hg10 mi
Weather by CustomWeather, © 2015

See weather overviewHow to use our weather pages